Weather observations for the past three days for
Smyrna, Smyrna Airport
Imperial (Metric)
Date Time (cdt) Wind (mph) Vis. (mi.) Weather Sky Cond. Temperature (ºF) Relative Humidity Wind Chill (°F) Heat Index (°F) Pressure Precipitation (in)
Air Dwpt 6 hour altimeter (in) sea level (mb) 1 hr 3 hr 6 hr
Max. Min.
22 19:56 W 6 10.00 Fair CLR 84.9 69.1 59% 89 29.98 1015.3
22 17:56 SW 12 10.00 A Few Clouds FEW065 93 68 44% 97 29.98 1015.3
22 16:56 SW 7 7.00 Fair CLR 93.9 68 43% 98 29.99 1015.5
22 15:56 Vrbl 3 10.00 Partly Cloudy SCT070 95 69.1 43% 101 30 1016.0
22 14:56 SW 8 10.00 Partly Cloudy SCT070 95 69.1 43% 101 30.02 1016.7
22 13:56 Calm 10.00 Mostly Cloudy BKN060 BKN080 91.9 69.1 47% 97 30.04 1017.3
22 12:56 NW 6 10.00 Partly Cloudy SCT060 90 69.1 93 75 50% 95 30.07 1018.3
22 11:56 Vrbl 5 10.00 A Few Clouds FEW060 93 72 50% 101 30.08 1018.7
22 10:56 W 5 10.00 Partly Cloudy SCT060 90 70 52% 95 30.1 1019.5
22 09:56 Calm 10.00 A Few Clouds FEW085 86 73 65% 93 30.12 1019.9
22 08:56 S 6 10.00 Partly Cloudy SCT060 82.9 72 70% 88 30.13 1020.4
22 07:56 SE 3 10.00 Partly Cloudy SCT110 81 73 77% 86 30.14 1020.7
22 06:56 Calm 10.00 Fair CLR 75 72 75.9 72 90% 74 30.14 1020.6
22 05:56 Calm 10.00 Fair CLR 72 70 94% 30.14 1020.6
22 04:56 SE 5 10.00 Fair CLR 72 71.1 97% 30.13 1020.5
22 03:56 Calm 10.00 Fair CLR 73 71.1 94% 30.13 1020.6
22 02:56 Calm 10.00 Fair CLR 73.9 71.1 91% 30.13 1020.3
22 01:56 S 3 10.00 Fair CLR 73.9 72 94% 30.13 1020.3
22 00:56 Calm 10.00 Mostly Cloudy BKN100 75 72 91 75 90% 74 30.13 1020.6
21 23:56 Calm 10.00 Fair CLR 78.1 72 82% 80 30.14 1020.6
21 22:56 Calm 10.00 Fair CLR 79 73 82% 82 30.14 1020.8
21 21:56 Calm 10.00 Fair CLR 80.1 72 76% 84 30.13 1020.5
21 20:56 E 3 10.00 Fair CLR 80.1 72 76% 84 30.13 1020.4
21 19:56 E 3 10.00 Fair CLR 88 71.1 57% 94 30.13 1020.2
21 18:56 N 7 10.00 Fair CLR 91 69.1 95 91 49% 96 30.12 1020.2
21 17:56 N 7 10.00 Partly Cloudy SCT075 93 68 44% 97 30.13 1020.5
21 16:56 E 7 10.00 Partly Cloudy SCT070 93.9 68 43% 98 30.14 1020.8
21 15:56 N 8 10.00 Partly Cloudy SCT090 91 68 47% 95 30.16 1021.5
21 14:56 Calm 10.00 Partly Cloudy SCT055 91.9 68 46% 96 30.17 1021.9
21 13:56 N 5 10.00 Partly Cloudy SCT095 93 68 44% 97 30.2 1022.8
21 12:56 N 10 10.00 Partly Cloudy SCT080 91 70 91.9 73 50% 97 30.22 1023.5
21 11:56 Vrbl 5 10.00 Partly Cloudy SCT065 90 69.1 50% 95 30.24 1024.3
21 10:56 Vrbl 6 10.00 A Few Clouds FEW065 89.1 72 57% 96 30.26 1024.7
21 09:56 E 3 10.00 A Few Clouds FEW075 87.1 71.1 59% 93 30.27 1025.2
21 08:56 Calm 10.00 A Few Clouds FEW075 82 72 72% 87 30.28 1025.5
21 07:56 Calm 9.00 A Few Clouds FEW075 79 71.1 77% 82 30.27 1025.2
21 06:56 Calm 10.00 A Few Clouds FEW075 73 70 73 70 90% 30.27 1025.4
21 05:56 Calm 10.00 Fair CLR 71.1 69.1 94% 30.26 1024.9
21 04:56 Calm 10.00 A Few Clouds FEW080 70 69.1 97% 30.25 1024.7
21 03:56 Calm 10.00 Fair CLR 71.1 69.1 94% 30.25 1024.4
21 02:56 Calm 10.00 Overcast BKN060 OVC075 72 69.1 91% 30.24 1024.4
21 01:56 Calm 10.00 Fair CLR 71.1 69.1 94% 30.25 1024.6
21 00:56 Calm 10.00 Fair CLR 72 68 90 71.1 87% 30.25 1024.7
20 23:56 Calm 10.00 Fair CLR 73 69.1 87% 30.25 1024.7
20 22:56 Calm 10.00 Fair CLR 75.9 69.1 79% 77 30.25 1024.7
20 21:56 Calm 10.00 Fair CLR 78.1 69.1 74% 80 30.25 1024.6
20 20:56 Calm 10.00 Fair CLR 80.1 69.1 69% 83 30.24 1024.2
20 19:56 NE 6 10.00 Fair CLR 87.1 66.9 51% 90 30.23 1023.9
20 18:56 E 7 10.00 Fair CLR 90 66.9 93 88 47% 93 30.23 1024.0
20 17:56 NE 7 10.00 A Few Clouds FEW060 91 66.9 45% 94 30.23 1023.9
20 16:56 E 8 10.00 Fair CLR 93 66 41% 96 30.25 1024.5
20 15:56 N 9 10.00 A Few Clouds FEW060 91 66.9 45% 94 30.26 1025.0
20 14:56 N 9 10.00 Mostly Cloudy BKN060 91 66.9 45% 94 30.28 1025.6
20 13:56 Vrbl 5 10.00 Mostly Cloudy BKN060 89.1 64.9 45% 91 30.29 1026.1
20 12:56 Calm 10.00 Mostly Cloudy BKN060 89.1 66 89.1 69.1 47% 92 30.31 1026.7
20 11:56 Vrbl 3 10.00 Partly Cloudy SCT050 89.1 66 47% 92 30.32 1027.1
20 10:56 S 6 10.00 A Few Clouds FEW040 86 68 55% 89 30.34 1027.6
20 09:56 S 3 10.00 Fair CLR 84 68 59% 87 30.34 1027.6
20 08:56 SE 6 10.00 Fair CLR 80.1 71.1 74% 84 30.33 1027.2
20 07:56 SE 5 10.00 Fair CLR 75 70 84% 75 30.33 1027.3
20 06:56 SE 3 10.00 Fair CLR 69.1 69.1 71.1 66 100% 30.32 1026.9
20 05:56 Calm 6.00 Fog/Mist CLR 66.9 66 97% 30.31 1026.5
20 04:56 Calm 6.00 Fog/Mist CLR 66.9 66.9 100% 30.3 1026.2
20 03:56 Calm 4.00 Fog/Mist CLR 68 66.9 96% 30.29 1026.0
20 02:56 Calm 4.00 Fog/Mist CLR 68 68 100% 30.29 1025.9
20 01:56 Calm 10.00 Fair CLR 70 68 93% 30.29 1025.8
20 00:56 Calm 10.00 Fair CLR 70 68 81 70 93% 30.29 1025.9
19 23:56 Calm 10.00 Fair CLR 71.1 70 96% 30.28 1025.4
19 22:56 Calm 10.00 Mostly Cloudy BKN050 73 69.1 87% 30.28 1025.4
19 21:56 Calm 10.00 Fair CLR 73 70 90% 30.27 1025.0
19 20:56 Calm 10.00 Fair CLR 77 70 79% 79 30.24 1024.3
Date Time (cdt) Wind (mph) Vis. (mi.) Weather Sky Cond. Air Dwpt Max. Min. Relative Humidity Wind Chill (°F) Heat Index (°F) altimeter (in) sea level (mb) 1 hr 3 hr 6 hr
6 hour
Temperature (ºF) Pressure Precipitation (in)